Regional Weather Roundup
Issued by NWS Goodland, KS

Home | Current Version | Previous Version | Text Only | Print | Product List | Glossary Off
Versions: 1 2 3 4 5 6 7 8 9 10 11 12 13 14 15 16 17 18 19 20 21 22 23 24 25 26 27 28 29 30 31 32 33 34 35 36 37 38 39 40 41 42 43 44 45 46 47 48 49 50

000
ASUS43 KGLD 192259
RWRGLD

GOODLAND FORECAST AREA HOURLY WEATHER ROUNDUP
NATIONAL WEATHER SERVICE GOODLAND KS
400 PM MST THU JAN 19 2017

...OFFICIAL OBSERVATIONS...

CITY           SKY/WX    TMP DP  RH WIND       PRES   REMARKS
GOODLAND KS    CLOUDY    36  35  96 E9        29.53S
HILL CITY KS   CLOUDY    46  42  86 E8        29.58F
IMPERIAL NEB   CLEAR     39  35  86 SE10      29.54R
MCCOOK NEB     CLOUDY    37  37 100 CALM      29.57F FOG
AKRON CO       CLEAR     47  24  40 CALM      29.51S
BURLINGTON CO  CLEAR     46  31  55 E5        29.52S
LIMON CO       CLEAR     51  15  23 N7        29.52F
$$

...UNOFFICIAL OBSERVATIONS...

CITY           SKY/WX    TMP DP  RH WIND       PRES   REMARKS
NORTON KS      CLOUDY    43  37  81 E3        29.58S
KIT CARSON CO    N/A     50  28  43 CALM        N/A
YUMA CO        FAIR      37  27  65 CALM      29.52R
$$



USA.gov is the U.S. government's official web portal to all federal, state and local government web resources and services.